Regional Weather Roundup
Issued by NWS

Home | Current Version | Previous Version | Text Only | Print | Product List | Glossary On
Versions: 1 2 3 4 5 6 7 8 9 10 11 12 13 14 15 16 17 18 19 20 21 22 23 24 25 26 27 28 29 30 31 32 33 34 35 36 37 38 39 40 41 42 43 44 45 46 47 48 49 50
000
ASUS43 KMKX 241011
RWRWI

WISCONSIN REGIONAL WEATHER ROUNDUP
NATIONAL WEATHER SERVICE MILWAUKEE/SULLIVAN WI
500 AM CDT WED MAY 24 2017

NOTE: "FAIR" INDICATES FEW OR NO CLOUDS BELOW 12,000 FEET WITH NO
SIGNIFICANT WEATHER AND/OR OBSTRUCTIONS TO VISIBILITY.

WIZ001-002-006>008-014>016-023>028-241100-
NORTHWEST WISCONSIN

CITY           SKY/WX    TMP DP  RH WIND       PRES   REMARKS
SUPERIOR ARPT  NOT AVBL
ASHLAND        CLOUDY    46  43  89 NE6       29.82S
HAYWARD        CLOUDY    46  42  86 N8        29.80F
SIREN          PTCLDY    43  42  95 CALM      29.81F
CUMBERLAND     CLOUDY    45  41  87 N6        29.79S
RICE LAKE      CLOUDY    46  42  86 N12G17    29.79S
CHETEK         PTCLDY    45  44  95 N5        29.78S
LADYSMITH      CLOUDY    44  42  93 N6        29.78F
EAU CLAIRE     CLOUDY    48  44  86 N6        29.75S
MENOMONIE      CLOUDY    47  45  93 N8        29.77S
NEW RICHMOND   MOCLDY    45  42  92 N7        29.79S
OSCEOLA        PTCLDY    44  44 100 CALM      29.82F
$$

WIZ003>005-009-010-017-018-241100-
NORTH CENTRAL WISCONSIN

CITY           SKY/WX    TMP DP  RH WIND       PRES   REMARKS
MANITOWISH WTR CLOUDY    45  45 100 NE5       29.78S
ARBOR VITAE    CLOUDY    46  43  90 NE8       29.77R
WOODRUFF       CLOUDY    46  43  90 NE8       29.77R
RHINELANDER    LGT RAIN  47  44  90 N5        29.76S
EAGLE RIVER    CLOUDY    45  44  95 N6        29.76S
LAND O LAKES   CLOUDY    45  43  92 N7        29.78F
PHILLIPS       CLOUDY    45  43  91 NE8       29.77S
TOMAHAWK       RAIN      45  42  90 N5        29.76S
MEDFORD        LGT RAIN  46  43  90 N8        29.74S
MERRILL        LGT RAIN  46  46  99 N6        29.75R
$$

WIZ029-030-035-036-043>047-241100-
CENTRAL WISCONSIN

CITY           SKY/WX    TMP DP  RH WIND       PRES   REMARKS
WAUSAU         LGT RAIN  47  46  97 N3        29.72R
MOSINEE        LGT RAIN  46  46 100 N7        29.73S
MARSHFIELD     LGT RAIN  49  46  90 NE9       29.71S
STEVENS POINT  CLOUDY    46  46 100 N5        29.72S
WAUPACA        CLOUDY    50  48  94 NE5       29.71S
WAUTOMA        CLOUDY    48  47  96 N10       29.69F
WISC RAPIDS    LGT RAIN  49  47  93 NE9G18    29.72S FOG
CAMP DOUGLAS   CLOUDY    50  49  99 N5        29.70S
$$

WIZ011>013-019>022-031-037>040-048>050-241100-
NORTHEAST WISCONSIN

CITY           SKY/WX    TMP DP  RH WIND       PRES   REMARKS
ANTIGO         DRIZZLE   45  45  98 NE9       29.73S
SHAWANO        RAIN      49  47  92 NE9       29.71S
OCONTO         CLOUDY    47  46  97 N5        29.71S
STURGEON BAY   CLOUDY    48  46  93 NE6       29.71R
GREEN BAY      CLOUDY    49  49 100 NE15      29.69S
MANITOWOC      LGT RAIN  47  45  93 CALM      29.69S
APPLETON       CLOUDY    46  46 100 NE12      29.67F FOG
CLINTONVILLE   DRIZZLE   46  46 100 N8        29.71R
OSHKOSH        CLOUDY    50  48  93 NE9       29.67S FOG
$$

WIZ032>034-041-042-053>061-241100-
SOUTHWEST WISCONSIN

CITY           SKY/WX    TMP DP  RH WIND       PRES   REMARKS
LA CROSSE      CLOUDY    52  49  89 N6        29.71F
SPARTA         DRIZZLE   48  48 100 N6        29.71F
VIROQUA        CLOUDY    49  48  99 MISG      29.69F
BOSCOBEL       CLOUDY    52  49  89 N6        29.68S
PRAIRIE DU CHI CLOUDY    51  48  87 N5        29.68S
PLATTEVILLE    CLOUDY    52  51  98 NE8       29.66S
$$

WIZ056-057-062-063-064-067-068-241100-
SOUTH CENTRAL WISCONSIN

CITY           SKY/WX    TMP DP  RH WIND       PRES   REMARKS
REEDSBURG      CLOUDY    49  49 100 NE7       29.68S
BARABOO/DELLS  CLOUDY    49  47  95 NE6       29.68S FOG
LONE ROCK      CLOUDY    51  47  86 N10       29.67S
MINERAL POINT  CLOUDY    52  52 100 NE7       29.66S
MADISON        CLOUDY    50  48  93 NE7       29.66S
MIDDLETON      CLOUDY    51  51 100 NE7       29.67R
WATERTOWN      CLOUDY    49  49 100 N6        29.65F
MONROE         CLOUDY    50  50 100 N8        29.64S FOG
JANESVILLE     CLOUDY    52  52 100 N6        29.64R FOG
$$

WIZ051-052-058>065-066-070>072-241100-
SOUTHEAST WISCONSIN

CITY           SKY/WX    TMP DP  RH WIND       PRES   REMARKS
MILWAUKEE      FOG       48  47  96 NE6       29.66R VSB 1/2
WAUKESHA       CLOUDY    46  46 100 NE3       29.66S FOG
MILWAUKEE/TIMM   N/A     46  45  93 NE3       29.66S FOG
RACINE         RAIN      47  46  97 N7        29.66F FOG
KENOSHA        LGT RAIN  50  48  93 NE6       29.63F FOG
FOND DU LAC    CLOUDY    50  48  93 NE7       29.67S
SHEBOYGAN      LGT RAIN  48  48 100 NE6       29.67S FOG
WEST BEND      CLOUDY    46  46 100 N5        29.66S FOG
JUNEAU         CLOUDY    48  48  99 N5        29.67F FOG
$$

LSZ147-162-241100-
LAKE SUPERIOR

STATION/POSITION TIME  TEMP    WIND        PRES    WAVE
                       AIR SEA DIR/SP/G            HT/PER
                 (UTC) (F)     (DEG/KT/KT) (MB)    (FT/S)
W MID LAKE BUOY  0850   40 37   20/ 10/ 12 1010.8F   1
DEVILS ISLAND    0900   44      30/ 14/ 15 1010.6F
SAXON HARBOR     0940   43     270/  1/  2 1009.8S
$$

LMZ867-665-643>646-241100-
LAKE MICHIGAN

STATION/POSITION TIME  TEMP    WIND        PRES    WAVE
                       AIR SEA DIR/SP/G            HT/PER
                 (UTC) (F)     (DEG/KT/KT) (MB)    (FT/S)
CHAMBERS ISLAND  0940   46     360/ 11/ 13 1005.8F
N MID LAKE BUOY  0950   42 39   50/ 10/ 12 1006.7F   1/ 3
NORTHPORT PIER   0940   47      20/  5/  7 1006.4S
KEWAUNEE LAKESHO 0948   46      20/ 11/ 15 1005.2R
SHEBOYGAN LAKESH 1000   45      10/ 15/ 16 1005.1R
PORT WASHINGTON  0940   49      30/  5/  7 1005.8R
ATWATER BUOY     0909   45      20/ 10/ 12 1004.5F
MILWAUKEE LAKESH 0950   46      10/  9/ 11   N/A
S MID LAKE BUOY  0850   47 45  360/ 10/ 12 1003.6F   0
KENOSHA   LAKESH 0900   47      10/ 10/ 12 1004.1
$$

TC  - TEMPERATURE IN CELSIUS
VSB - VISIBILITY IN STATUTE MILES
WCI - WIND CHILL INDEX
HX  - HEAT INDEX





USA.gov is the U.S. government's official web portal to all federal, state and local government web resources and services.